TimeCST,TemperatureF,Dew PointF,Humidity,Sea Level PressureIn,VisibilityMPH,Wind Direction,Wind SpeedMPH,Gust SpeedMPH,PrecipitationIn,Events,Conditions,WindDirDegrees,DateUTC
12:07 AM,19.4,14.0,80,30.04,10.0,NW,18.4,-,N/A,,Scattered Clouds,310,2013-01-06 06:07:00
12:53 AM,18.0,12.9,81,30.09,10.0,NW,25.3,-,N/A,,Overcast,310,2013-01-06 06:53:00
1:12 AM,17.6,12.2,79,30.05,9.0,NW,20.7,-,N/A,,Overcast,320,2013-01-06 07:12:00
1:53 AM,16.0,12.0,84,30.10,8.0,NW,19.6,27.6,N/A,,Overcast,310,2013-01-06 07:53:00
2:51 AM,15.8,12.2,86,30.10,10.0,WNW,16.1,-,N/A,,Scattered Clouds,300,2013-01-06 08:51:00
2:53 AM,16.0,12.0,84,30.14,10.0,WNW,17.3,-,N/A,,Partly Cloudy,300,2013-01-06 08:53:00
4:53 AM,12.9,8.1,81,30.16,10.0,WNW,13.8,-,N/A,,Clear,290,2013-01-06 10:53:00
5:53 AM,12.0,7.0,80,30.18,10.0,WNW,15.0,-,N/A,,Clear,300,2013-01-06 11:53:00
6:53 AM,10.9,6.1,81,30.23,10.0,West,10.4,-,N/A,,Clear,280,2013-01-06 12:53:00
7:53 AM,12.0,6.1,77,30.26,10.0,WNW,12.7,-,N/A,,Overcast,290,2013-01-06 13:53:00
8:53 AM,12.9,7.0,77,30.28,10.0,West,10.4,-,N/A,,Mostly Cloudy,280,2013-01-06 14:53:00
9:53 AM,15.1,9.0,77,30.29,10.0,WNW,11.5,-,N/A,,Mostly Cloudy,290,2013-01-06 15:53:00
10:53 AM,17.1,10.9,77,30.32,10.0,WNW,13.8,-,N/A,,Clear,300,2013-01-06 16:53:00
11:53 AM,19.9,12.9,74,30.31,10.0,WNW,12.7,-,N/A,,Clear,290,2013-01-06 17:53:00
12:53 PM,21.9,14.0,72,30.30,10.0,West,11.5,-,N/A,,Clear,280,2013-01-06 18:53:00
1:53 PM,23.0,15.1,72,30.29,10.0,WNW,10.4,-,N/A,,Clear,300,2013-01-06 19:53:00
2:53 PM,23.0,16.0,74,30.29,10.0,WSW,5.8,-,N/A,,Clear,250,2013-01-06 20:53:00
3:53 PM,21.9,16.0,78,30.30,10.0,WSW,10.4,-,N/A,,Clear,240,2013-01-06 21:53:00
4:53 PM,19.9,15.1,81,30.31,10.0,SW,8.1,-,N/A,,Clear,220,2013-01-06 22:53:00
5:53 PM,18.0,14.0,84,30.30,10.0,SSW,4.6,-,N/A,,Clear,200,2013-01-06 23:53:00
6:53 PM,18.0,14.0,84,30.31,10.0,SSW,4.6,-,N/A,,Clear,200,2013-01-07 00:53:00
7:53 PM,17.1,14.0,88,30.30,10.0,SSE,3.5,-,N/A,,Clear,160,2013-01-07 01:53:00
8:53 PM,16.0,12.9,88,30.28,10.0,SSE,5.8,-,N/A,,Clear,150,2013-01-07 02:53:00
9:53 PM,14.0,10.9,88,30.26,10.0,SE,6.9,-,N/A,,Clear,140,2013-01-07 03:53:00
10:53 PM,15.1,12.0,88,30.25,10.0,SE,5.8,-,N/A,,Clear,140,2013-01-07 04:53:00
11:53 PM,19.9,14.0,78,30.23,10.0,SSE,11.5,-,N/A,,Clear,160,2013-01-07 05:53:00